Location: Haliburton Scout Reserve
(45.0900°N, 78.3200°W)
Time: 09:09:46
(UTC-04:00)

Explorer 11/Cluster Stage 4 - Pass Details

Date: 05 February 2023
Orbit: 466 x 1241 km, 28.8° (Epoch: 31 March)

Event Time Altitude Azimuth Distance (km) Brightness Sun altitude
Rises 06:09:03 0° 241° (WSW) 4,011 - -14.4°
Exits shadow 06:10:58 - 235° (SW) 3,487 9.5 -14.0°
Reaches altitude 10° 06:12:25 10° 228° (SW) 3,125 9.3 -13.8°
Maximum altitude 06:18:26 24° 179° (S) 2,316 9.1 -12.7°
Drops below altitude 10° 06:24:33 10° 130° (SE) 3,185 10.7 -11.7°
Sets 06:28:01 0° 118° (ESE) 4,104 11.9 -11.1°
